Weather History for Hibbing, MN

Change the Weather History Date:

Tuesday, February 12, 2013

  Actual Average Record
Temperature  
Mean Temperature 14 °F -  
Max Temperature 30 °F 22 °F 45 °F (1976)
Min Temperature -2 °F -1 °F -42 °F (1967)
Degree Days  
Heating Degree Days 51    
Moisture  
Dew Point 11 °F    
Average Humidity 76    
Maximum Humidity 85    
Minimum Humidity 59    
Precipitation  
Precipitation 0.00 in - - ()
Sea Level Pressure  
Sea Level Pressure 29.84 in    
Wind  
Wind Speed 4 mph (SW)    
Max Wind Speed 9 mph    
Max Gust Speed 16 mph    
Visibility 10 miles    
Events      
Averages and records for this station are not official NWS values.
T = Trace of Precipitation, MM = Missing Value Source: NWS Daily Summary

Daily Weather History Graph

Daily Weather History Graph

Search for Another Location

Airport:

Trip Planner

Search our weather history database for the weather conditions in past years. The results will help you decide how hot, cold, wet, or windy it might be!

Date:

Astronomy

Feb. 12, 2013 Rise Set
Actual Time 7:20 AM CST 5:30 PM CST
Civil Twilight 6:49 AM CST 6:02 PM CST
Nautical Twilight 6:13 AM CST 6:38 PM CST
Astronomical Twilight 5:37 AM CST 7:14 PM CST
Moon 8:03 AM CST (2/12) 8:49 PM CST (2/12)
Length of Visible Light 11h 13m
Length of Day
10h 09m
Waxing Crescent, 7% of the Moon is Illuminated
Feb 12
Waxing Crescent
Feb 17
First Quarter
Feb 25
Full
Mar 4
Last Quarter
Mar 11
New

Hourly Weather History & Observations

Time (CST) Temp. Windchill Dew Point Humidity Pressure Visibility Wind Dir Wind Speed Gust Speed Precip Events Conditions
12:53 AM 16.0 °F 8.8 °F 10.9 °F 81% 29.96 in 10.0 mi WSW 4.6 mph - 0.00 in   Mostly Cloudy
1:00 AM 15.8 °F 7.2 °F 10.4 °F 79% 29.88 in 10.0 mi WSW 5.8 mph - N/A   Scattered Clouds
1:53 AM 10.9 °F 4.7 °F 7.0 °F 84% 29.95 in 10.0 mi SW 3.5 mph - N/A   Clear
2:53 AM 5.0 °F - 1.0 °F 84% 29.95 in 10.0 mi Calm Calm - N/A   Clear
3:53 AM -2.0 °F - -6.0 °F 83% 29.96 in 10.0 mi Calm Calm - N/A   Clear
4:07 AM -0.4 °F - -5.8 °F 78% 29.86 in 10.0 mi Calm Calm - N/A   Mostly Cloudy
4:23 AM 1.4 °F - -2.2 °F 85% 29.86 in 10.0 mi Calm Calm - N/A   Overcast
4:53 AM 7.0 °F - 3.0 °F 84% 29.95 in 10.0 mi Calm Calm - N/A   Overcast
5:17 AM 8.6 °F - 3.2 °F 79% 29.86 in 10.0 mi Calm Calm - N/A   Overcast
5:53 AM 9.0 °F 2.4 °F 3.9 °F 80% 29.94 in 10.0 mi SSE 3.5 mph - N/A   Overcast
6:53 AM 10.9 °F 4.7 °F 7.0 °F 84% 29.92 in 10.0 mi South 3.5 mph - N/A   Overcast
7:53 AM 12.0 °F - 8.1 °F 84% 29.91 in 10.0 mi Calm Calm - N/A   Overcast
8:53 AM 14.0 °F 6.5 °F 10.0 °F 84% 29.90 in 10.0 mi South 4.6 mph - N/A   Overcast
9:53 AM 18.0 °F 7.7 °F 12.9 °F 81% 29.87 in 10.0 mi SSW 8.1 mph - N/A   Overcast
10:44 AM 21.2 °F 10.9 °F 14.0 °F 74% 29.78 in 10.0 mi SW 9.2 mph 16.1 mph N/A   Overcast
10:53 AM 21.0 °F 10.6 °F 15.1 °F 78% 29.86 in 10.0 mi SSW 9.2 mph - N/A   Overcast
11:53 AM 24.1 °F 15.2 °F 16.0 °F 71% 29.83 in 10.0 mi WSW 8.1 mph - N/A   Overcast
12:53 PM 26.1 °F 19.4 °F 17.1 °F 69% 29.79 in 10.0 mi Variable 5.8 mph - N/A   Overcast
1:53 PM 28.0 °F 21.7 °F 18.0 °F 66% 29.78 in 10.0 mi SW 5.8 mph - 0.00 in   Clear
2:53 PM 30.0 °F 23.2 °F 18.0 °F 61% 29.79 in 10.0 mi West 6.9 mph - N/A   Clear
3:53 PM 30.9 °F 23.5 °F 18.0 °F 59% 29.79 in 10.0 mi West 8.1 mph - 0.00 in   Clear
4:53 PM 28.9 °F 25.2 °F 18.0 °F 64% 29.79 in 10.0 mi Variable 3.5 mph - N/A   Clear
5:53 PM 28.9 °F 23.9 °F 19.0 °F 67% 29.78 in 10.0 mi SSW 4.6 mph - N/A   Overcast
6:53 PM 27.0 °F 21.6 °F 19.0 °F 72% 29.76 in 10.0 mi SSW 4.6 mph - N/A   Partly Cloudy
7:53 PM 25.0 °F - 18.0 °F 75% 29.76 in 10.0 mi Calm Calm - N/A   Clear
8:53 PM 24.1 °F 18.2 °F 17.1 °F 75% 29.75 in 10.0 mi SW 4.6 mph - N/A   Partly Cloudy
9:53 PM 27.0 °F 19.5 °F 19.0 °F 72% 29.73 in 10.0 mi WSW 6.9 mph - N/A   Overcast
10:53 PM 27.0 °F 23.0 °F 19.9 °F 75% 29.73 in 10.0 mi West 3.5 mph - N/A   Overcast
11:53 PM 27.0 °F 21.6 °F 19.9 °F 75% 29.72 in 10.0 mi West 4.6 mph - N/A   Overcast